Probability
0 0 0 0 0 0 0 0 0 0 0 0 0 0 0 0 0 0 0 0 0 0 0 0 0 0 0 0 0 0 0 0 0 0 0 0 0 0 0 0 0 0 0 0
0 0 0 0 0 0 0 0 0 0 0 0 0 0 0 0 0 0 0 0 0 0 0 0 0 0 0 0 0 0 0 0 0 0 0 0 0 0 0 0 0 0 0 0
0 0 0 0 0 0 0 0 0 0 0 0 0 0 0 0 0 0 0 0 0 0 0 0 0 0 0 0 0 0 0 0 0 0 0 0 0 0 0 0 0 0 0 0
0 0 0 0 0 0 0 0 0 0 0 0 0 0 0 0 0 0 0 0 0 0 0 0 0 0 0 0 0 0 0 0 0 0 0 0 0 0 0 0 0 0 0 0
0 0 0 0 0 0 0 0 0 0 0 0 0 0 0 0 0 0 0 0 0 0 0 0 0 0 0 0 0 0 0 0 0 0 0 0 0 0 0 0 0 0 0 0
0 0 0 0 0 0 0 0 0 0 0 0 0 0 0 0 0 0 0 0 0 0 0 0 0 0 0 0 0 0 0 0 0 0 0 0 0 0 0 0 0 0 0 0
0 0 0 0 0 0 0 0 0 0 0 0 0 0 0 0 0 0 0 0 0 0 0 0 0 0 0 0 0 0 0 0 0 0 0 0 0 0 0 0 0 0 0 0
0 0 0 0 0 0 0 0 0 0 0 0 0 0 0 0 0 0 0 0 0 0 0 0 0 0 0 0 0 0 0 0 0 0 0 0 0 0 0 0 0 0 0 0
0 0 0 0 0 0 0 0 0 0 0 0 0 0 0 0 0 0 0 0 0 0 0 0 0 0 0 0 0 0 0 0 0 0 0 0 0 0 0 0 0 0 0 0
0 0 0 0 0 0 0 0 0 0 0 0 0 0 0 0 0 0 0 0 0 0 0 0 0 0 0 0 0 0 0 0 0 0 0 0 0 0 0 0 0 0 0 0
0 0 0 0 0 0 0 0 0 0 0 0 0 0 0 0 0 0 0 0 0 0 0 0 0 0 0 0 0 0 0 0 0 0 0 0 0 0 0 0 0 0 0 0
0 0 0 0 0 0 0 0 0 0 0 0 0 0 0 0 0 0 0 0 0 0 0 0 0 0 0 0 0 0 0 0 0 0 0 0 0 0 0 0 0 0 0 0
0 0 0 0 0 0 0 0 0 0 0 0 0 0 0 0 0 0 0 0 0 0 0 0 0 0 0 0 0 0 0 0 0 0 0 0 0 0 0 0 0 0 0 0
0 0 0 0 0 0 0 0 0 0 0 0 0 0 0 0 0 0 0 0 0 0 0 0 0 0 0 0 0 0 0 0 0 0 0 0 0 0 0 0 0 0 0 0
0 0 0 0 0 0 0 0 0 0 0 0 0 0 0 0 0 0 0 0 0 0 0 0 0 0 0 0 0 0 0 0 0 0 0 0 0 0 0 0 0 0 0 0
0 0 0 0 0 0 0 0 0 0 0 0 0 0 0 0 0 0 0 0 0 0 0 0 0 0 0 0 0 0 0 0 0 0 0 0 0 0 0 0 0 0 0 0
0 0 0 0 0 0 0 0 0 0 0 0 0 0 0 0 0 0 0 0 0 0 0 0 0 0 0 0 0 0 0 0 0 0 0 0 0 0 0 0 0 0 0 0
0 0 0 0 0 0 0 0 0 0 0 0 0 0 0 0 0 0 0 0 0 0 0 0 0 0 0 0 0 0 0 0 0 0 0 0 0 0 0 0 0 0 0 0
0 0 0 0 0 0 0 0 0 0 0 0 0 0 0 0 0 0 0 0 0 0 0 0 0 0 0 0 0 0 0 0 0 0 0 0 0 0 0 0 0 0 0 0
0 0 0 0 0 0 0 0 0 0 0 0 0 0 0 0 0 0 0 0 0 0 0 0 0 0 0 0 0 0 0 0 0 0 0 0 0 0 0 0 0 0 0 0
0 0 0 0 0 0 0 0 0 0 0 0 0 0 0 0 0 0 0 0 0 0 0 0 0 0 0 0 0 0 0 0 0 0 0 0 0 0 0 0 0 0 0 0
0 0 0 0 0 0 0 0 0 0 0 0 0 0 0 0 0 0 0 0 0 0 0 0 0 0 0 0 0 0 0 0 0 0 0 0 0 0 0 0 0 0 0 0
0 0 0 0 0 0 0 0 0 0 0 0 0 0 0 0 0 0 0 0 0 0 0 0 0 0 0 0 0 0 0 0 0 0 0 0 0 0 0 0 0 0 0 0
0 0 0 0 0 0 0 0 0 0 0 0 0 0 0 0 0 0 0 0 0 0 0 0 0 0 0 0 0 0 0 0 0 0 0 0 0 0 0 0 0 0 0 0
0 0 0 0 0 0 0 0 0 0 0 0 0 0 0 0 0 0 0 0 0 0 0 0 0 0 0 0 0 0 0 0 0 0 0 0 0 0 0 0 0 0 0 0
0 0 0 0 0 0 0 0 0 0 0 0 0 0 0 0 0 0 0 0 0 0 0 0 0 0 0 0 0 0 0 0 0 0 0 0 0 0 0 0 0 0 0 0
0 0 0 0 0 0 0 0 0 0 0 0 0 0 0 0 0 0 0 0 0 0 0 0 0 0 0 0 0 0 0 0 0 0 0 0 0 0 0 0 0 0 0 0
Wind_Speed
11 12 11 11 12 13 13 11 10 11 11 11 8 6 4 2 4 6 7 8 8 8 7 8 8 8 8 9 10 11 11 11 11 10 10 10 10 9 9 9 9 9 9 8
10 11 12 13 13 14 16 15 16 16 15 8 7 4 3 1 4 5 6 7 8 8 8 9 9 9 9 9 9 10 11 11 10 11 11 10 10 10 10 9 9 9 9 9
7 8 9 11 12 14 14 13 13 15 12 7 7 4 2 1 1 2 4 5 7 7 8 8 9 9 10 10 9 10 10 11 11 11 11 11 11 11 10 9 9 9 9 9
5 5 9 7 6 9 12 11 10 10 8 6 6 4 1 0 0 1 2 3 5 6 7 6 6 8 8 9 10 10 11 11 11 11 12 11 11 11 9 8 9 8 9 9
4 5 9 7 6 7 8 9 6 7 7 7 7 4 3 2 1 2 2 3 4 5 7 7 8 9 10 10 10 11 11 12 12 12 13 12 12 11 9 9 8 8 8 9
4 5 6 3 3 2 4 6 2 4 5 5 4 3 4 4 3 2 1 1 3 5 7 8 8 9 11 11 11 11 12 12 12 12 13 12 12 10 9 9 8 8 8 8
8 7 8 6 5 1 3 3 3 3 4 5 3 5 6 5 3 2 1 1 3 5 6 8 9 10 10 10 11 11 11 11 12 12 12 12 11 10 10 10 10 9 9 7
7 9 9 4 2 1 2 2 3 3 4 6 7 7 6 5 3 2 2 1 2 4 5 7 9 10 10 10 10 11 12 12 12 12 11 11 12 11 11 11 11 9 9 8
6 7 6 4 3 3 2 3 4 4 5 5 7 8 7 6 4 3 2 2 2 3 5 6 9 10 11 9 11 13 13 13 12 12 10 11 12 13 11 10 9 8 8 7
7 8 8 8 6 4 4 5 5 5 6 6 7 7 7 6 5 4 2 2 1 3 5 6 7 8 9 10 11 14 14 13 12 12 11 10 9 9 9 9 9 8 8 8
10 10 10 9 7 6 6 6 6 6 6 6 7 7 7 6 5 4 3 2 2 4 5 6 7 8 9 11 13 14 14 13 12 11 12 10 8 6 7 6 9 10 8 8
11 9 9 9 8 8 9 8 7 7 8 7 7 8 7 7 6 5 4 3 3 3 4 6 7 9 10 11 13 15 14 13 11 10 10 10 10 10 12 10 14 13 12 11
13 12 11 12 11 10 10 9 8 8 9 9 7 7 7 7 6 5 4 4 5 4 5 6 8 9 10 11 13 14 14 13 11 11 11 11 10 12 11 11 15 14 15 15
11 11 13 12 11 10 10 9 9 9 9 8 7 6 6 6 5 5 5 4 4 4 5 6 8 9 10 11 12 13 13 14 13 11 11 11 10 10 10 11 10 7 9 15
12 11 12 12 11 10 9 8 9 9 8 8 6 6 6 6 6 5 4 3 4 4 5 7 8 9 10 11 13 14 13 11 11 10 10 10 10 10 10 10 10 9 7 9
10 10 10 11 12 11 9 9 10 10 8 8 7 7 6 6 5 4 3 4 6 7 7 8 8 9 10 12 13 11 10 15 14 12 11 11 10 10 10 10 10 9 8 8
10 10 9 10 11 11 10 10 10 10 8 8 7 6 5 4 4 3 3 3 4 4 5 7 8 9 10 11 12 11 11 13 17 12 11 11 10 10 10 10 9 8 7 8
7 9 9 10 10 11 10 10 10 9 9 8 6 6 6 6 6 5 3 3 4 4 4 6 8 10 10 11 11 11 11 11 10 11 10 10 10 9 10 10 10 10 8 8
8 9 10 11 11 11 11 10 9 9 8 6 6 6 6 6 5 5 4 5 7 6 5 7 12 11 11 12 13 10 11 12 11 10 10 14 12 9 9 10 9 9 8 7
9 9 10 11 11 11 11 10 8 8 7 6 6 6 6 5 5 5 5 5 4 4 7 10 11 11 11 13 14 11 12 13 13 12 11 10 11 10 9 10 10 9 8 7
11 11 11 11 12 11 10 9 8 8 6 6 6 7 6 5 6 6 6 5 4 7 10 13 10 9 10 12 15 11 12 12 12 12 11 11 11 10 10 10 9 9 8 7
10 11 12 11 11 11 9 8 7 7 6 5 5 5 6 6 6 5 4 4 7 11 9 8 8 12 14 15 10 11 12 12 11 10 10 11 11 11 10 10 9 8 8 7
11 11 11 11 11 10 9 7 6 6 5 5 5 6 6 6 6 6 5 5 7 12 9 8 13 20 20 12 10 11 12 12 11 11 10 10 10 10 10 10 9 8 8 7
12 11 11 11 9 9 9 7 5 4 4 4 4 5 5 5 4 3 4 10 13 13 8 13 21 22 18 9 10 11 11 11 11 10 10 10 9 9 9 9 9 8 8 8
11 10 10 9 8 7 6 4 3 2 3 2 3 3 3 3 4 5 7 10 15 14 10 16 21 19 12 9 10 10 10 10 11 11 11 10 10 10 9 9 9 8 7 7
10 9 8 8 7 5 3 2 2 2 2 3 3 3 4 4 6 7 7 9 12 13 10 10 11 13 9 10 10 10 10 12 12 10 10 10 11 10 9 9 10 8 7 7
9 8 6 5 4 3 2 1 1 2 2 4 4 4 5 5 6 7 9 9 9 9 9 9 9 9 9 10 10 10 9 9 10 10 10 10 9 9 9 10 8 7 7 6
Wind_Direction
272 272 262 250 242 234 230 232 244 259 271 275 288 290 276 183 160 151 150 154 156 159 158 157 155 155 155 158 157 157 157 160 162 158 154 152 151 151 146 144 144 143 141 140
274 263 260 257 247 241 237 234 243 261 266 271 284 307 326 158 148 148 152 162 163 162 158 160 159 156 154 154 155 155 154 155 150 148 149 149 147 143 139 138 138 139 141 141
276 283 280 250 230 230 232 231 232 244 257 286 293 302 305 9 103 150 155 162 166 166 161 163 162 156 157 154 148 149 149 147 147 146 146 146 143 142 142 142 139 139 139 138
273 280 244 247 229 231 237 240 238 249 276 280 281 272 262 35 130 186 171 177 173 166 158 154 152 149 146 146 148 148 148 149 148 146 144 143 144 144 142 140 142 140 138 136
252 257 270 270 255 240 240 239 248 257 277 293 297 273 269 319 295 229 212 205 182 164 155 151 154 152 146 147 149 150 153 155 153 150 147 147 147 147 143 139 137 137 135 135
241 252 251 274 303 275 267 246 285 280 291 303 311 259 267 314 314 306 276 197 162 148 149 153 157 152 151 154 156 159 158 155 152 149 149 148 147 142 138 136 134 129 125 128
234 249 266 286 302 322 217 258 337 317 312 310 281 269 291 306 309 288 275 211 150 147 155 161 158 156 158 160 165 158 148 145 147 147 146 143 139 138 136 132 128 124 121 118
218 233 250 306 307 220 271 320 341 337 325 314 300 298 305 309 312 305 280 199 161 157 160 161 159 160 163 167 158 146 143 143 145 145 142 140 137 135 135 134 132 129 123 115
222 239 282 306 308 310 334 326 331 323 309 307 307 306 310 310 304 298 268 225 187 175 168 169 167 165 167 163 150 145 143 144 143 140 138 140 140 140 139 139 138 138 134 131
257 260 277 287 290 287 299 297 305 309 304 300 292 297 305 303 298 297 279 262 215 175 173 177 171 167 163 155 151 147 146 145 143 141 138 135 136 140 143 146 143 142 143 139
264 270 281 273 279 284 288 289 294 295 294 293 291 290 291 291 286 281 277 255 215 200 192 183 171 162 156 154 151 148 146 145 143 140 137 131 121 121 133 140 151 150 151 148
259 270 277 286 295 296 293 288 289 294 296 290 279 280 280 278 276 270 261 241 224 223 205 180 166 160 158 157 155 151 148 148 146 141 135 130 121 99 81 105 118 122 130 134
264 273 275 280 284 284 283 285 286 284 284 284 276 271 273 274 273 263 248 225 213 215 207 181 167 164 164 161 159 156 152 150 146 144 141 139 136 130 118 94 94 109 122 127
270 272 271 271 273 274 274 278 279 277 275 271 268 265 261 265 265 252 240 230 215 204 196 180 169 168 164 159 154 150 147 147 146 145 143 142 140 136 135 134 127 111 116 127
263 263 268 274 276 275 270 270 271 270 269 270 264 257 252 248 249 249 239 215 199 192 186 175 170 168 159 154 151 148 147 145 142 138 136 136 135 132 131 130 130 129 123 125
274 272 270 272 274 274 273 266 263 263 261 261 261 256 248 244 242 241 224 193 188 191 184 175 169 161 152 148 145 143 141 141 140 138 137 137 136 135 135 135 135 138 141 141
281 276 276 276 276 276 272 268 265 263 259 255 252 247 239 227 225 225 218 203 191 186 180 171 160 149 147 147 144 141 139 139 137 135 138 139 139 140 139 138 139 139 141 149
278 280 277 275 276 277 273 268 265 262 257 251 242 230 217 210 211 210 193 169 150 149 165 159 148 143 143 143 140 138 138 139 140 139 136 135 135 137 136 136 137 136 136 143
290 287 287 284 280 279 276 269 265 263 258 244 231 226 218 211 202 192 172 167 167 171 170 151 146 143 140 141 138 136 136 135 133 132 132 135 132 133 134 135 136 136 138 138
296 292 291 289 285 279 274 272 264 259 253 237 226 222 213 199 186 178 172 182 191 172 153 149 145 143 141 141 136 137 138 138 137 136 134 136 136 135 134 134 135 136 137 139
303 299 295 290 287 282 274 270 262 253 245 231 220 214 202 188 178 172 168 175 169 151 149 148 147 146 144 142 136 138 139 139 139 139 139 138 136 136 135 135 136 138 139 138
303 299 295 293 289 286 278 269 259 249 236 225 216 198 182 177 173 168 174 173 156 153 151 150 147 146 145 141 138 138 137 137 136 136 137 138 139 139 138 138 138 138 137 138
302 299 297 295 291 288 286 274 256 241 228 213 199 190 183 179 174 168 169 163 153 152 148 147 146 145 143 138 136 136 137 137 137 137 138 138 138 138 138 138 137 137 138 138
302 301 297 294 290 285 282 277 260 240 216 201 196 187 173 162 160 159 144 149 151 145 140 144 145 144 140 136 133 134 135 135 134 132 131 130 131 132 134 135 135 135 137 138
299 298 296 293 287 279 273 266 247 212 180 162 158 155 151 152 152 145 139 142 143 138 135 143 143 140 135 131 132 133 133 134 133 132 132 133 134 133 133 134 136 137 139 140
299 295 291 285 278 272 264 248 226 193 164 152 139 130 122 119 125 131 131 132 134 134 134 135 136 133 128 126 125 127 128 130 129 128 132 132 131 131 132 133 134 136 137 138
297 296 294 294 292 278 259 232 201 187 173 159 143 128 124 125 127 128 129 129 130 129 127 126 126 125 124 123 123 122 121 122 124 127 129 129 130 130 133 134 134 133 134 137